Flag for Norway Weather past 2 weeks in Flekkefjord, Norway

Now
56 °F

Cool.


Feels Like: 54 °F
Forecast: 55 / 59 °F
Wind: 8 mph from East

Location: Lista Fyr

Current Time: Sep 30, 2014 at 10:49:14 PM

Latest Report: Sep 30, 2014 at 10:00 PM


Visibility: N/A

Pressure: 30.24 "Hg

Humidity: 69%

Dew point: 46 °F

Location of FlekkefjordLocation

Historic Weather in Flekkefjord — Graph

°F

Flekkefjord temperature yesterday

Maximum temperature yesterday: 60 °F (at 4:00 PM)
Minimum temperature yesterday: 49 °F (at 11:00 PM)
Average temperature yesterday: 57 °F

Past Weeks' High & Low Weather Summary

 TemperatureHumidityPressure
High68 °F (Sep 18, 3:00 PM)95% (Sep 23, 10:00 PM)30.29 "Hg (Sep 23, 10:00 PM)
Low41 °F (Sep 23, 5:00 AM)40% (Sep 22, 2:00 PM)29.65 "Hg (Sep 25, 12:00 AM)
Average57 °F73%30.02 "Hg
* Reported Sep 15 9:00 PM — Sep 30 9:00 PM, Flekkefjord, Weather by CustomWeather, © 2014

Note: Actual official high and low records may vary slightly from our data, if they occured in-between our weather recording intervals... More about our weather records

Advertising

Flekkefjord weather history for previous 24 hours

 ConditionsComfort  
Time TempWeatherWind HumidityBarometerVisibility
9:00 PM
Sep 30
56 °FCool.7 mph63%30.25 "HgN/A
8:00 PM57 °FOvercast.7 mph65%30.25 "Hg19 mi
7:00 PM57 °FCool.6 mph65%30.24 "HgN/A
6:00 PM58 °FCool.5 mph67%30.24 "HgN/A
5:00 PM57 °FCool.7 mph67%30.24 "HgN/A
4:00 PM58 °FCool.8 mph64%30.25 "HgN/A
3:00 PM58 °FCool.9 mph65%30.25 "HgN/A
2:00 PM58 °FOvercast.9 mph67%30.25 "Hg16 mi
1:00 PM58 °FCool.9 mph72%30.24 "HgN/A
12:00 PM56 °FCool.9 mph80%30.24 "HgN/A
11:00 AM56 °FOvercast.9 mph81%30.23 "Hg9 mi
10:00 AM56 °FCool.7 mph81%30.22 "HgN/A
9:00 AM55 °FCool.5 mph83%30.22 "HgN/A
8:00 AM53 °FPartly sunny.6 mph85%30.21 "Hg16 mi
7:00 AM51 °FCool.6 mph81%30.20 "HgN/A
6:00 AM48 °FCool.5 mph89%30.20 "HgN/A
5:00 AM46 °FCool.3 mph92%30.20 "HgN/A
4:00 AM48 °FCool.3 mph91%30.20 "HgN/A
3:00 AM49 °FCool.2 mph90%30.19 "HgN/A
2:00 AM49 °FCool.2 mph92%30.20 "HgN/A
1:00 AM47 °FCool.3 mph92%30.20 "HgN/A
12:00 AM50 °FCool.1 mph93%30.19 "HgN/A
11:00 PM
Sep 29
49 °FCool.2 mph91%30.19 "HgN/A
10:00 PM51 °FCool.1 mph91%30.19 "HgN/A
Weather by CustomWeather, © 2014

See weather overviewHow to use our weather pages